EUTELSAT HOTBIRD 13C

Last updated on Tue Jul 01 2025 00:02:44 GMT+0000 (Coordinated Universal Time)

1 33459U 08065A 25181.42261057 -.00000102 00000+0 00000+0 0 9999 2 33459 2.0451 83.4041 0003211 13.6518 321.3027 1.00271597 43815
UTC large
Height (km)
Speed (km/s)
/
Latitude / Longitude
Inclination (degrees)
Orbital Period (minutes)
Azimuth
Elevation
Range (km)
Doppler Factor

Next 0 passes for location: London (51.5072 / 0.1276)

Sorry there are no passes over London.